Stations météo

réclame
Mon MeteoGroup
Kloevsjoehoejden, Suède (2325): Température de l'air & dewpoint: 14.10.2017 23:00:00 - 20.10.2017 23:00:00 (CEST)Kloevsjoehoejden, Suède (2325): Vitesse du vent & gusts: 14.10.2017 23:00:00 - 20.10.2017 23:00:00 (CEST)Kloevsjoehoejden, Suède (2325): Direction du vent: 14.10.2017 23:00:00 - 20.10.2017 23:00:00 (CEST)Kloevsjoehoejden, Suède (2325): reduced air pressure: 14.10.2017 23:00:00 - 20.10.2017 23:00:00 (CEST)Kloevsjoehoejden, Suède (2325): visibility: 14.10.2017 23:00:00 - 20.10.2017 23:00:00 (CEST)Kloevsjoehoejden, Suède (2325): Quantités de précipitations: 14.10.2017 23:00:00 - 20.10.2017 23:00:00 (CEST)
Date & Time tt [°C] td [°C] ff [km/h] ff [knt] fx [km/h] fx [knt] dd ppp [hPa] vv [km] rr [mm]
20.10.2017 23:00:00 - - - - - - - - - -
20.10.2017 22:00:00 -0,5 -0,5 13 7 22 12 SSE 1024,1 0,1 0,0
20.10.2017 21:00:00 -0,5 -0,5 13 7 24 13 SSE 1024,2 0,1 0,0
20.10.2017 20:00:00 -0,4 -0,4 15 8 25 14 SSE 1023,8 0,2 0,0
20.10.2017 19:00:00 -0,3 -0,3 14 8 23 12 SSE 1023,6 0,2 0,0
20.10.2017 18:00:00 -0,2 -0,2 15 8 24 13 SSE 1023,3 0,3 0,0
20.10.2017 17:00:00 0,1 0,1 13 7 25 13 SSE 1023,2 2,0 0,0
20.10.2017 16:00:00 0,4 0,4 10 6 17 9 S 1023,1 2,6 0,0
20.10.2017 15:00:00 0,7 0,4 10 5 21 11 SSE 1022,9 38 0,0
20.10.2017 14:00:00 1,1 0,6 11 6 20 11 SSE 1022,7 46 0,0
20.10.2017 13:00:00 1,1 0,8 12 6 21 11 S 1022,5 38 0,0
20.10.2017 12:00:00 0,5 0,2 9 5 15 8 S 1022,7 47 0,0
20.10.2017 11:00:00 0,3 -0,1 10 5 23 12 S 1022,3 46 0,0
20.10.2017 10:00:00 -0,1 -0,2 12 7 19 10 S 1022,1 44 0,0
20.10.2017 09:00:00 -0,8 -0,9 12 6 17 9 S 1021,6 43 0,0
20.10.2017 08:00:00 -1,5 -2,3 11 6 16 8 SSW 1021,4 50 0,0
20.10.2017 07:00:00 -1,8 -2,2 12 6 16 8 SSW 1021,4 50 0,0
20.10.2017 06:00:00 -0,9 -2,5 9 5 18 10 SSW 1021,1 50 0,0
20.10.2017 05:00:00 -0,5 -2,4 13 7 19 11 SW 1021,2 50 0,0
20.10.2017 04:00:00 -0,7 -2,1 11 6 18 10 SW 1021,3 50 0,0
20.10.2017 03:00:00 -0,3 -1,7 11 6 24 13 SW 1021,4 50 0,0
20.10.2017 02:00:00 0,0 -1,9 11 6 22 12 SW 1021,3 50 0,0
20.10.2017 01:00:00 -0,2 -2,1 11 6 19 10 SW 1021,4 50 0,0
20.10.2017 00:00:00 -0,5 -1,6 10 5 16 9 SSW 1021,6 50 0,0
19.10.2017 23:00:00 -0,2 -1,8 9 5 16 8 SW 1021,7 50 0,0
19.10.2017 22:00:00 0,2 -1,6 10 5 16 9 SSW 1021,6 50 0,0
19.10.2017 21:00:00 -0,1 -1,4 9 5 20 11 SSW 1021,5 50 0,0
19.10.2017 20:00:00 0,0 -1,4 9 5 18 10 SW 1021,5 50 0,0
19.10.2017 19:00:00 -0,2 -1,6 9 5 14 7 S 1021,4 50 0,0
19.10.2017 18:00:00 0,3 -1,6 10 5 12 7 S 1021,3 50 0,0
19.10.2017 17:00:00 1,9 -1,2 7 4 13 7 S 1021,0 50 0,0
19.10.2017 16:00:00 3,1 -1,3 6 4 19 10 SSW 1020,6 50 0,0
19.10.2017 15:00:00 4,0 -2,2 10 5 19 10 SSW 1020,5 50 0,0
19.10.2017 14:00:00 4,2 -1,4 7 4 14 8 SSW 1020,6 46 0,0
19.10.2017 13:00:00 2,7 -1,3 4 2 10 5 N 1021,1 45 0,0
19.10.2017 12:00:00 2,4 -1,6 4 2 11 6 NNE 1021,3 45 0,0
19.10.2017 11:00:00 2,3 -0,8 7 4 14 8 NW 1021,2 44 0,0
19.10.2017 10:00:00 1,2 -0,9 11 6 15 8 WNW 1021,0 46 0,0
19.10.2017 09:00:00 0,0 -1,3 11 6 20 11 NW 1020,7 50 0,0
19.10.2017 08:00:00 -0,6 -1,3 12 7 24 13 WNW 1020,5 50 0,0
19.10.2017 07:00:00 -0,3 -1,1 16 9 26 14 NW 1020,3 50 0,0
19.10.2017 06:00:00 0,1 -0,9 14 7 29 16 NW 1020,0 50 0,0
19.10.2017 05:00:00 0,7 -0,5 18 10 33 18 NNW 1019,4 50 0,0
19.10.2017 04:00:00 0,5 -1,1 17 9 29 16 NNW 1019,3 50 0,0
19.10.2017 03:00:00 -0,2 -1,5 14 7 39 21 NW 1019,1 50 0,0
19.10.2017 02:00:00 0,6 -1,2 21 11 32 17 NW 1018,6 50 0,0
19.10.2017 01:00:00 0,9 -1,0 20 11 34 18 NW 1018,0 50 0,0
19.10.2017 00:00:00 0,9 -1,2 23 12 46 25 NW 1017,6 50 0,0
18.10.2017 23:00:00 1,0 -1,1 28 15 45 25 WNW 1017,3 50 0,0
18.10.2017 22:00:00 1,3 -0,9 27 15 44 24 WNW 1016,8 50 0,0
18.10.2017 21:00:00 0,9 -0,7 22 12 39 21 WNW 1016,7 50 0,0
18.10.2017 20:00:00 1,5 -0,9 22 12 40 21 NW 1016,2 50 0,0
18.10.2017 19:00:00 1,8 -0,6 21 11 36 19 WNW 1015,5 50 0,0
18.10.2017 18:00:00 1,7 -0,7 17 9 35 19 WNW 1015,1 50 0,0
18.10.2017 17:00:00 2,8 -0,3 13 7 40 22 WNW 1014,3 50 0,0
18.10.2017 16:00:00 3,1 -0,4 22 12 46 25 WNW 1013,1 50 0,0
18.10.2017 15:00:00 3,4 -0,4 24 13 51 28 WNW 1012,4 50 0,0
18.10.2017 14:00:00 3,3 0,2 26 14 49 26 WNW 1011,7 50 0,0
18.10.2017 13:00:00 3,1 0,3 22 12 46 25 NW 1011,3 50 0,0
18.10.2017 12:00:00 2,5 0,4 31 17 56 30 WNW 1010,4 49 0,0
18.10.2017 11:00:00 1,9 0,1 28 15 52 28 WNW 1009,7 50 0,0
18.10.2017 10:00:00 1,3 -0,2 30 16 52 28 WNW 1009,1 50 0,0
18.10.2017 09:00:00 1,1 -0,4 32 17 50 27 WNW 1008,5 34 0,0
18.10.2017 08:00:00 0,7 -0,6 33 18 53 29 WNW 1007,6 50 0,0
18.10.2017 07:00:00 0,3 -0,8 32 17 50 27 WNW 1006,9 50 0,0
18.10.2017 06:00:00 0,2 -0,8 27 14 51 28 WNW 1006,6 50 0,0
18.10.2017 05:00:00 -0,1 -0,9 29 15 47 26 WNW 1006,4 50 0,0
18.10.2017 04:00:00 -0,3 -1,3 23 12 37 20 WNW 1006,3 49 0,0
18.10.2017 03:00:00 -0,8 -2,1 18 10 31 17 WNW 1006,3 50 0,0
18.10.2017 02:00:00 -0,9 -1,7 21 11 39 21 WNW 1006,0 50 0,0
18.10.2017 01:00:00 -0,8 -0,8 19 10 39 21 NW 1005,4 50 0,0
18.10.2017 00:00:00 -0,5 -0,5 20 11 37 20 NNW 1004,8 50 0,0
17.10.2017 23:00:00 -0,6 -0,6 18 10 35 19 NNW 1004,2 50 0,0
17.10.2017 22:00:00 -0,8 -0,8 16 8 31 17 N 1003,6 0,2 0,0
17.10.2017 21:00:00 -0,9 -0,9 12 7 27 15 N 1003,2 0,3 0,1
17.10.2017 20:00:00 -0,6 -0,6 10 6 19 11 NNW 1002,7 1,1 0,2
17.10.2017 19:00:00 -0,5 -0,5 8 4 11 6 NNW 1002,5 0,6 0,4
17.10.2017 18:00:00 -0,1 -0,1 3 2 8 5 NNW 1002,3 0,7 0,5
17.10.2017 17:00:00 -0,1 -0,1 6 3 9 5 SSW 1002,2 0,5 0,3
17.10.2017 16:00:00 -0,1 -0,1 7 4 10 6 S 1002,7 0,6 0,4
17.10.2017 15:00:00 -0,2 -0,2 6 3 13 7 S 1003,3 0,9 0,6
17.10.2017 14:00:00 -0,2 -0,2 7 4 13 7 SE 1004,3 1,0 1,0
17.10.2017 13:00:00 -0,4 -0,4 7 4 12 7 ESE 1005,1 0,5 1,1
17.10.2017 12:00:00 -0,4 -0,4 8 4 13 7 ESE 1006,0 0,3 0,9
17.10.2017 11:00:00 -0,2 -0,2 5 3 15 8 ESE 1007,2 0,4 1,0
17.10.2017 10:00:00 0,2 0,2 9 5 16 9 S 1008,0 1,5 0,8
17.10.2017 09:00:00 0,3 0,0 9 5 18 10 SSW 1008,5 2,3 0,3
17.10.2017 08:00:00 0,5 -0,1 12 7 25 13 SSW 1009,3 50 0,1
17.10.2017 07:00:00 1,2 0,0 16 8 29 16 WSW 1011,0 6 0,2
17.10.2017 06:00:00 1,8 -1,6 11 6 28 15 WSW 1010,7 48 0,0
17.10.2017 05:00:00 2,1 -1,5 11 6 30 16 WSW 1012,3 50 0,0
17.10.2017 04:00:00 1,9 -1,5 22 12 41 22 WSW 1011,9 50 0,0
17.10.2017 03:00:00 2,0 -1,3 23 12 40 22 W 1013,1 50 0,0
17.10.2017 02:00:00 1,9 -1,0 23 13 38 21 W 1014,2 50 0,0
17.10.2017 01:00:00 1,6 -1,3 23 12 40 21 W 1014,2 50 0,0
17.10.2017 00:00:00 1,9 -1,4 24 13 44 24 W 1013,9 50 0,0
16.10.2017 23:00:00 1,7 -1,4 29 16 43 23 W 1014,1 50 0,0
16.10.2017 22:00:00 1,5 -1,6 24 13 43 23 W 1014,1 50 0,0
16.10.2017 21:00:00 2,3 -1,5 26 14 41 22 W 1013,8 50 0,0
16.10.2017 20:00:00 2,4 -1,6 23 12 39 21 W 1013,7 50 0,0
16.10.2017 19:00:00 2,5 -1,8 24 13 39 21 W 1013,5 50 0,0
16.10.2017 18:00:00 2,5 -1,7 19 10 42 23 W 1013,3 50 0,0
16.10.2017 17:00:00 3,9 -1,9 25 13 49 26 W 1012,5 50 0,0
16.10.2017 16:00:00 4,5 -1,9 27 15 50 27 WNW 1011,6 50 0,0
16.10.2017 15:00:00 4,6 -0,8 25 14 53 29 WNW 1011,2 50 0,0
16.10.2017 14:00:00 4,4 -0,2 25 13 44 24 W 1011,1 50 0,0
16.10.2017 13:00:00 4,5 0,8 16 9 40 21 W 1010,3 50 0,0
16.10.2017 12:00:00 4,4 0,7 23 12 45 25 W 1009,4 50 0,0
16.10.2017 11:00:00 4,2 1,2 19 10 35 19 W 1008,2 50 0,0
16.10.2017 10:00:00 4,2 1,4 19 11 36 19 W 1007,0 50 0,0
16.10.2017 09:00:00 4,8 1,3 17 9 49 27 WNW 1005,6 50 0,0
16.10.2017 08:00:00 5,7 1,4 36 20 62 34 WNW 1002,9 50 0,0
16.10.2017 07:00:00 8,1 4,1 26 14 49 26 W 1000,8 50 0,0
16.10.2017 06:00:00 8,2 6,0 22 12 51 28 WSW 999,1 47 0,0
16.10.2017 05:00:00 8,3 6,6 24 13 59 32 WSW 998,5 46 0,0
16.10.2017 04:00:00 8,3 6,9 27 14 55 30 SW 998,1 36 0,0
16.10.2017 03:00:00 8,2 7,3 25 14 50 27 SW 998,3 23 0,0
16.10.2017 02:00:00 7,9 7,3 29 16 54 29 SW 998,5 20 0,0
16.10.2017 01:00:00 7,2 7,1 21 12 49 26 SSW 999,6 22 0,0
16.10.2017 00:00:00 6,6 6,6 28 15 50 27 SW 1000,7 15 0,0
15.10.2017 23:00:00 5,7 5,7 24 13 49 27 SSW 1002,4 0,8 0,0
15.10.2017 22:00:00 4,8 4,8 27 15 48 26 SSW 1003,8 0,4 0,1
15.10.2017 21:00:00 3,8 3,8 22 12 37 20 SSW 1005,7 0,4 0,4
15.10.2017 20:00:00 3,2 3,2 22 12 40 22 S 1007,0 0,3 0,2
15.10.2017 19:00:00 3,0 3,0 22 12 41 22 S 1008,5 0,8 0,2
15.10.2017 18:00:00 2,9 2,8 17 9 31 17 S 1009,8 14 0,3
15.10.2017 17:00:00 3,0 2,6 19 10 29 16 SSW 1011,1 27 0,0
15.10.2017 16:00:00 4,0 1,5 19 10 37 20 SSW 1011,9 44 0,0
15.10.2017 15:00:00 4,6 0,2 19 10 32 17 SW 1012,3 50 0,0
15.10.2017 14:00:00 6,4 0,1 8 4 29 16 SW 1012,1 50 0,0
15.10.2017 13:00:00 5,2 0,2 19 10 30 16 WSW 1013,1 50 0,0
15.10.2017 12:00:00 4,8 0,0 19 10 30 16 WSW 1013,5 50 0,0
15.10.2017 11:00:00 3,9 -0,5 19 10 29 16 WSW 1014,1 50 0,0
15.10.2017 10:00:00 3,1 -0,7 18 10 29 16 WSW 1014,0 50 0,0
15.10.2017 09:00:00 2,7 -0,9 19 10 26 14 WSW 1013,8 50 0,0
15.10.2017 08:00:00 1,9 -1,2 18 10 29 15 WSW 1013,7 50 0,0
15.10.2017 07:00:00 2,2 -1,2 18 10 27 15 SW 1013,1 50 0,0
15.10.2017 06:00:00 2,4 -1,2 21 11 33 18 WSW 1012,9 50 0,0
15.10.2017 05:00:00 2,2 -1,2 16 9 32 17 WSW 1011,8 50 0,0
15.10.2017 04:00:00 2,8 -1,0 21 11 34 19 WSW 1010,9 50 0,0
15.10.2017 03:00:00 3,0 -0,6 18 10 34 19 WSW 1010,6 50 0,0
15.10.2017 02:00:00 3,1 -0,5 20 11 32 17 W 1010,0 50 0,0
15.10.2017 01:00:00 2,8 -0,1 16 9 26 14 SW 1009,8 50 0,0
15.10.2017 00:00:00 3,5 0,0 19 10 39 21 WSW 1008,8 50 0,0
14.10.2017 23:00:00 3,9 0,2 22 12 42 23 WSW 1007,6 50 0,0

tt = Température de l'air
td = dewpoint
ff = Vitesse du vent
fx = gusts
dd = Direction du vent
ppp = reduced air pressure
vv = visibility
rr = Quantités de précipitations

stations d'obs. à proximité